| time (UTC) | temp F | wind direction | speed MPH | gust MPH | rain 1hr in | rain 24hr in | rain mn in | humidity % | barometer mb |
| 20260510121004 | 45 | 332 | 4.0 | 5.0 | 0.00 | 0.00 | 0.00 | 61 | 1016.8 |
| 20260510120004 | 44 | 334 | 5.0 | 6.0 | 0.00 | 0.00 | 0.00 | 62 | 1017.0 |
| 20260510115003 | 45 | 337 | 5.0 | 6.0 | 0.00 | 0.00 | 0.00 | 60 | 1017.1 |
| 20260510114003 | 46 | 336 | 5.0 | 5.0 | 0.00 | 0.00 | 0.00 | 59 | 1017.3 |
| 20260510113003 | 46 | 334 | 4.0 | 5.0 | 0.00 | 0.00 | 0.00 | 58 | 1017.3 |
| 20260510112003 | 46 | 334 | 4.0 | 5.0 | 0.00 | 0.00 | 0.00 | 60 | 1017.3 |
| 20260510111003 | 45 | 337 | 5.0 | 6.0 | 0.00 | 0.00 | 0.00 | 61 | 1017.4 |
| 20260510110213 | 46 | 336 | 5.0 | 6.0 | 0.00 | 0.00 | 0.00 | 61 | 1017.5 |
| 20260510105003 | 46 | 335 | 4.0 | 5.0 | 0.00 | 0.00 | 0.00 | 61 | 1017.6 |
| 20260510104004 | 46 | 334 | 4.0 | 6.0 | 0.00 | 0.00 | 0.00 | 61 | 1017.6 |
| 20260510103215 | 46 | 333 | 4.0 | 6.0 | 0.00 | 0.00 | 0.00 | 59 | 1017.6 |
| 20260510102003 | 47 | 332 | 4.0 | 5.0 | 0.00 | 0.00 | 0.00 | 59 | 1017.7 |
| 20260510101003 | 47 | 332 | 4.0 | 5.0 | 0.00 | 0.00 | 0.00 | 58 | 1017.8 |
| 20260510100003 | 48 | 332 | 3.0 | 4.0 | 0.00 | 0.00 | 0.00 | 57 | 1017.9 |
| 20260510095004 | 48 | 332 | 3.0 | 4.0 | 0.00 | 0.00 | 0.00 | 57 | 1018.0 |
| 20260510094214 | 48 | 332 | 3.0 | 5.0 | 0.00 | 0.00 | 0.00 | 57 | 1018.0 |
| 20260510093214 | 48 | 332 | 4.0 | 5.0 | 0.00 | 0.00 | 0.00 | 58 | 1018.1 |
| 20260510092214 | 47 | 332 | 3.0 | 5.0 | 0.00 | 0.00 | 0.00 | 59 | 1018.2 |
| 20260510091214 | 47 | 332 | 3.0 | 5.0 | 0.00 | 0.00 | 0.00 | 59 | 1018.3 |
| 20260510090004 | 47 | 331 | 4.0 | 6.0 | 0.00 | 0.00 | 0.00 | 59 | 1018.4 |
| 20260510085214 | 48 | 330 | 3.0 | 5.0 | 0.00 | 0.00 | 0.00 | 58 | 1018.4 |
| 20260510084003 | 50 | 330 | 2.0 | 4.0 | 0.00 | 0.00 | 0.00 | 55 | 1018.4 |
| 20260510083214 | 50 | 330 | 3.0 | 4.0 | 0.00 | 0.00 | 0.00 | 56 | 1018.4 |
| 20260510082214 | 48 | 329 | 4.0 | 5.0 | 0.00 | 0.00 | 0.00 | 59 | 1018.4 |
| 20260510081213 | 48 | 329 | 3.0 | 5.0 | 0.00 | 0.00 | 0.00 | 59 | 1018.6 |
| 20260510080214 | 49 | 329 | 1.0 | 4.0 | 0.00 | 0.00 | 0.00 | 57 | 1018.7 |
| 20260510075213 | 49 | 329 | 2.0 | 4.0 | 0.00 | 0.00 | 0.00 | 58 | 1018.6 |
| 20260510074003 | 49 | 328 | 3.0 | 5.0 | 0.00 | 0.00 | 0.00 | 58 | 1018.6 |
| 20260510073003 | 49 | 328 | 2.0 | 4.0 | 0.00 | 0.00 | 0.00 | 56 | 1018.7 |
| 20260510072003 | 50 | 328 | 1.0 | 3.0 | 0.00 | 0.00 | 0.00 | 55 | 1018.7 |
| 20260510071003 | 50 | 328 | 2.0 | 3.0 | 0.00 | 0.00 | 0.00 | 55 | 1018.7 |
| 20260510070004 | 50 | 328 | 1.0 | 5.0 | 0.00 | 0.00 | 0.00 | 55 | 1018.6 |
| 20260510065213 | 49 | 328 | 3.0 | 4.0 | 0.00 | 0.00 | 0.00 | 55 | 1018.7 |
| 20260510064213 | 50 | 324 | 1.0 | 5.0 | 0.00 | 0.00 | 0.00 | 53 | 1018.8 |
| 20260510063003 | 50 | 320 | 3.0 | 5.0 | 0.00 | 0.00 | 0.00 | 52 | 1018.9 |
| 20260510062003 | 51 | 319 | 2.0 | 3.0 | 0.00 | 0.00 | 0.00 | 49 | 1019.0 |
| 20260510061003 | 51 | 317 | 1.0 | 4.0 | 0.00 | 0.00 | 0.00 | 49 | 1019.1 |
| 20260510060003 | 52 | 0 | 0.0 | 0.0 | 0.00 | 0.00 | 0.00 | 48 | 1019.2 |
| 20260510055003 | 52 | 0 | 0.0 | 0.0 | 0.00 | 0.00 | 0.00 | 48 | 1019.1 |
| 20260510054003 | 52 | 0 | 0.0 | 0.0 | 0.00 | 0.00 | 0.00 | 49 | 1019.3 |
| 20260510053003 | 52 | 0 | 0.0 | 0.0 | 0.00 | 0.00 | 0.00 | 49 | 1019.2 |
| 20260510052003 | 53 | 0 | 0.0 | 0.0 | 0.00 | 0.00 | 0.00 | 48 | 1019.3 |
| 20260510051003 | 53 | 316 | 0.0 | 1.0 | 0.00 | 0.00 | 0.00 | 49 | 1019.3 |
| 20260510050004 | 52 | 316 | 0.0 | 1.0 | 0.00 | 0.00 | 0.00 | 50 | 1019.3 |
| 20260510045003 | 53 | 0 | 0.0 | 0.0 | 0.00 | 0.00 | 0.00 | 49 | 1019.5 |
| 20260510044214 | 53 | 0 | 0.0 | 0.0 | 0.00 | 0.00 | 0.00 | 50 | 1019.5 |
| 20260510043003 | 53 | 0 | 0.0 | 0.0 | 0.00 | 0.00 | 0.00 | 50 | 1019.6 |
| 20260510042005 | 54 | 0 | 0.0 | 0.0 | 0.00 | 0.00 | 0.00 | 48 | 1019.5 |
| 20260510041003 | 54 | 0 | 0.0 | 0.0 | 0.00 | 0.00 | 0.00 | 48 | 1019.4 |
| 20260510040003 | 56 | 0 | 0.0 | 0.0 | 0.00 | 0.00 | 0.00 | 46 | 1019.3 |
| 20260510035003 | 56 | 0 | 0.0 | 0.0 | 0.00 | 0.00 | 0.00 | 45 | 1019.2 |
| 20260510034003 | 56 | 0 | 0.0 | 0.0 | 0.00 | 0.00 | 0.00 | 46 | 1019.2 |
| 20260510033004 | 56 | 0 | 0.0 | 0.0 | 0.00 | 0.00 | 0.00 | 46 | 1019.2 |
| 20260510032214 | 57 | 0 | 0.0 | 0.0 | 0.00 | 0.00 | 0.00 | 45 | 1019.1 |
| 20260510031003 | 57 | 0 | 0.0 | 0.0 | 0.00 | 0.00 | 0.00 | 44 | 1019.0 |
| 20260510030003 | 58 | 100 | 0.0 | 3.0 | 0.00 | 0.00 | 0.00 | 44 | 1019.0 |
| 20260510025003 | 58 | 0 | 0.0 | 0.0 | 0.00 | 0.00 | 0.00 | 43 | 1019.1 |
| 20260510024003 | 59 | 126 | 1.0 | 6.0 | 0.00 | 0.00 | 0.00 | 43 | 1019.0 |
| 20260510023003 | 59 | 131 | 1.0 | 4.0 | 0.00 | 0.00 | 0.00 | 42 | 1019.2 |
| 20260510022003 | 60 | 110 | 2.0 | 6.0 | 0.00 | 0.00 | 0.00 | 42 | 1019.1 |
| 20260510021003 | 60 | 107 | 4.0 | 8.0 | 0.00 | 0.00 | 0.00 | 42 | 1019.1 |
| 20260510020003 | 60 | 110 | 4.0 | 8.0 | 0.00 | 0.00 | 0.00 | 42 | 1019.0 |
| 20260510015003 | 60 | 108 | 4.0 | 7.0 | 0.00 | 0.00 | 0.00 | 41 | 1019.2 |
| 20260510014003 | 61 | 130 | 4.0 | 7.0 | 0.00 | 0.00 | 0.00 | 41 | 1019.5 |
| 20260510013003 | 61 | 140 | 4.0 | 7.0 | 0.00 | 0.00 | 0.00 | 39 | 1019.7 |
| 20260510012003 | 61 | 143 | 5.0 | 8.0 | 0.00 | 0.00 | 0.00 | 38 | 1019.7 |
| 20260510011213 | 61 | 146 | 5.0 | 10.0 | 0.00 | 0.00 | 0.00 | 38 | 1019.7 |
| 20260510010003 | 62 | 149 | 5.0 | 9.0 | 0.00 | 0.00 | 0.00 | 37 | 1019.8 |
| 20260510005003 | 62 | 114 | 3.0 | 7.0 | 0.00 | 0.00 | 0.00 | 37 | 1019.6 |
| 20260510004003 | 62 | 143 | 4.0 | 9.0 | 0.00 | 0.00 | 0.00 | 37 | 1019.7 |
| 20260510003004 | 62 | 132 | 4.0 | 9.0 | 0.00 | 0.00 | 0.00 | 37 | 1019.6 |
| 20260510002214 | 63 | 136 | 4.0 | 9.0 | 0.00 | 0.00 | 0.00 | 36 | 1019.8 |
| 20260510001215 | 63 | 157 | 4.0 | 9.0 | 0.00 | 0.00 | 0.00 | 36 | 1019.8 |
| 20260510000212 | 64 | 167 | 2.0 | 5.0 | 0.00 | 0.00 | 0.00 | 34 | 1019.7 |
| 20260509235003 | 64 | 158 | 3.0 | 9.0 | 0.00 | 0.00 | 0.00 | 35 | 1019.8 |
| 20260509234003 | 63 | 127 | 3.0 | 7.0 | 0.00 | 0.00 | 0.00 | 33 | 1019.8 |
| 20260509233003 | 64 | 148 | 3.0 | 8.0 | 0.00 | 0.00 | 0.00 | 33 | 1020.0 |
| 20260509232003 | 64 | 157 | 3.0 | 9.0 | 0.00 | 0.00 | 0.00 | 32 | 1020.0 |
| 20260509231003 | 64 | 151 | 3.0 | 7.0 | 0.00 | 0.00 | 0.00 | 32 | 1020.2 |
| 20260509230005 | 64 | 135 | 2.0 | 9.0 | 0.00 | 0.00 | 0.00 | 32 | 1020.4 |
| 20260509225003 | 63 | 133 | 5.0 | 11.0 | 0.00 | 0.00 | 0.00 | 30 | 1020.4 |
| 20260509224214 | 64 | 146 | 4.0 | 11.0 | 0.00 | 0.00 | 0.00 | 31 | 1020.4 |
| 20260509223003 | 63 | 123 | 4.0 | 8.0 | 0.00 | 0.00 | 0.00 | 31 | 1020.6 |
| 20260509222003 | 64 | 152 | 2.0 | 7.0 | 0.00 | 0.00 | 0.00 | 30 | 1020.6 |
| 20260509221214 | 63 | 111 | 2.0 | 9.0 | 0.00 | 0.00 | 0.00 | 30 | 1020.7 |
| 20260509220214 | 63 | 152 | 3.0 | 9.0 | 0.00 | 0.00 | 0.00 | 29 | 1020.8 |
| 20260509215003 | 63 | 148 | 3.0 | 8.0 | 0.00 | 0.00 | 0.00 | 28 | 1020.8 |
| 20260509214003 | 63 | 171 | 4.0 | 10.0 | 0.00 | 0.00 | 0.00 | 29 | 1020.9 |
| 20260509213003 | 62 | 116 | 4.0 | 9.0 | 0.00 | 0.00 | 0.00 | 29 | 1020.9 |
| 20260509212003 | 63 | 112 | 4.0 | 10.0 | 0.00 | 0.00 | 0.00 | 30 | 1021.0 |
| 20260509211003 | 63 | 156 | 2.0 | 11.0 | 0.00 | 0.00 | 0.00 | 29 | 1021.1 |
| 20260509210003 | 62 | 161 | 3.0 | 8.0 | 0.00 | 0.00 | 0.00 | 29 | 1021.3 |
| 20260509205213 | 62 | 115 | 4.0 | 10.0 | 0.00 | 0.00 | 0.00 | 30 | 1021.2 |
| 20260509204003 | 62 | 151 | 2.0 | 9.0 | 0.00 | 0.00 | 0.00 | 32 | 1021.3 |
| 20260509203003 | 62 | 127 | 5.0 | 10.0 | 0.00 | 0.00 | 0.00 | 30 | 1021.2 |
| 20260509202003 | 61 | 115 | 5.0 | 12.0 | 0.00 | 0.00 | 0.00 | 33 | 1021.2 |
| 20260509201003 | 61 | 172 | 4.0 | 10.0 | 0.00 | 0.00 | 0.00 | 32 | 1021.3 |
| 20260509200003 | 61 | 162 | 5.0 | 13.0 | 0.00 | 0.00 | 0.00 | 30 | 1021.3 |
| 20260509195003 | 60 | 126 | 5.0 | 12.0 | 0.00 | 0.00 | 0.00 | 33 | 1021.3 |
| 20260509194003 | 60 | 125 | 6.0 | 11.0 | 0.00 | 0.00 | 0.00 | 35 | 1021.3 |
| 20260509193004 | 59 | 134 | 6.0 | 10.0 | 0.00 | 0.00 | 0.00 | 34 | 1021.4 |
| 20260509192003 | 60 | 104 | 5.0 | 12.0 | 0.00 | 0.00 | 0.00 | 34 | 1021.4 |
| 20260509191213 | 59 | 117 | 6.0 | 13.0 | 0.00 | 0.00 | 0.00 | 34 | 1021.5 |
| 20260509190003 | 60 | 148 | 4.0 | 10.0 | 0.00 | 0.00 | 0.00 | 34 | 1021.5 |
| 20260509185003 | 58 | 149 | 5.0 | 12.0 | 0.00 | 0.00 | 0.00 | 33 | 1021.5 |
| 20260509184003 | 58 | 112 | 5.0 | 12.0 | 0.00 | 0.00 | 0.00 | 37 | 1021.5 |
| 20260509183003 | 57 | 119 | 6.0 | 13.0 | 0.00 | 0.00 | 0.00 | 35 | 1021.5 |
| 20260509182212 | 57 | 118 | 6.0 | 12.0 | 0.00 | 0.00 | 0.00 | 39 | 1021.4 |
| 20260509181003 | 57 | 116 | 6.0 | 11.0 | 0.00 | 0.00 | 0.00 | 40 | 1021.6 |
| 20260509180003 | 56 | 137 | 6.0 | 13.0 | 0.00 | 0.00 | 0.00 | 39 | 1021.7 |
| 20260509175003 | 56 | 115 | 7.0 | 12.0 | 0.00 | 0.00 | 0.00 | 39 | 1021.6 |
| 20260509174003 | 56 | 111 | 7.0 | 12.0 | 0.00 | 0.00 | 0.00 | 41 | 1021.6 |
| 20260509173214 | 56 | 117 | 6.0 | 12.0 | 0.00 | 0.00 | 0.00 | 41 | 1021.7 |
| 20260509172003 | 56 | 146 | 7.0 | 12.0 | 0.00 | 0.00 | 0.00 | 38 | 1021.5 |
| 20260509171003 | 56 | 110 | 5.0 | 10.0 | 0.00 | 0.00 | 0.00 | 38 | 1021.4 |
| 20260509170003 | 56 | 122 | 6.0 | 10.0 | 0.00 | 0.00 | 0.00 | 39 | 1021.3 |
| 20260509165003 | 56 | 112 | 5.0 | 9.0 | 0.00 | 0.00 | 0.00 | 40 | 1021.2 |
| 20260509164003 | 55 | 111 | 5.0 | 11.0 | 0.00 | 0.00 | 0.00 | 41 | 1021.2 |
| 20260509163003 | 55 | 103 | 5.0 | 10.0 | 0.00 | 0.00 | 0.00 | 45 | 1021.1 |
| 20260509162003 | 55 | 110 | 4.0 | 8.0 | 0.00 | 0.00 | 0.00 | 41 | 1021.2 |
| 20260509161003 | 56 | 111 | 4.0 | 7.0 | 0.00 | 0.00 | 0.00 | 43 | 1021.2 |
| 20260509160003 | 56 | 116 | 4.0 | 8.0 | 0.00 | 0.00 | 0.00 | 41 | 1021.3 |
| 20260509155003 | 56 | 109 | 4.0 | 6.0 | 0.00 | 0.00 | 0.00 | 37 | 1021.2 |
| 20260509154003 | 56 | 109 | 4.0 | 6.0 | 0.00 | 0.00 | 0.00 | 34 | 1021.3 |
| 20260509153213 | 57 | 107 | 1.0 | 6.0 | 0.00 | 0.00 | 0.00 | 32 | 1021.1 |
| 20260509152003 | 57 | 0 | 0.0 | 0.0 | 0.00 | 0.00 | 0.00 | 32 | 1021.0 |
| 20260509151003 | 56 | 0 | 0.0 | 0.0 | 0.00 | 0.00 | 0.00 | 32 | 1021.1 |
| 20260509150003 | 56 | 0 | 0.0 | 0.0 | 0.00 | 0.00 | 0.00 | 35 | 1021.0 |
| 20260509145003 | 55 | 0 | 0.0 | 0.0 | 0.00 | 0.00 | 0.00 | 37 | 1020.9 |
| 20260509144003 | 55 | 0 | 0.0 | 0.0 | 0.00 | 0.00 | 0.00 | 41 | 1020.9 |
| 20260509143213 | 54 | 0 | 0.0 | 0.0 | 0.00 | 0.00 | 0.00 | 38 | 1020.9 |
| 20260509142003 | 53 | 316 | 1.0 | 4.0 | 0.00 | 0.00 | 0.00 | 42 | 1020.8 |
| 20260509141213 | 52 | 309 | 3.0 | 6.0 | 0.00 | 0.00 | 0.00 | 43 | 1020.6 |
| 20260509140004 | 51 | 306 | 3.0 | 8.0 | 0.00 | 0.00 | 0.00 | 45 | 1020.6 |
| 20260509135003 | 49 | 325 | 2.0 | 7.0 | 0.00 | 0.00 | 0.00 | 48 | 1020.5 |
| 20260509134003 | 48 | 314 | 2.0 | 8.0 | 0.00 | 0.00 | 0.00 | 51 | 1020.3 |
| 20260509133212 | 48 | 305 | 4.0 | 10.0 | 0.00 | 0.00 | 0.00 | 51 | 1020.2 |
| 20260509132003 | 47 | 304 | 8.0 | 12.0 | 0.00 | 0.00 | 0.00 | 52 | 1020.1 |
| 20260509131214 | 46 | 303 | 9.0 | 12.0 | 0.00 | 0.00 | 0.00 | 54 | 1019.9 |
| 20260509130003 | 46 | 307 | 10.0 | 15.0 | 0.00 | 0.00 | 0.00 | 55 | 1019.8 |
| 20260509125003 | 45 | 309 | 9.0 | 12.0 | 0.00 | 0.00 | 0.00 | 56 | 1019.7 |
| 20260509124003 | 45 | 307 | 10.0 | 14.0 | 0.00 | 0.00 | 0.00 | 57 | 1019.7 |
| 20260509123003 | 45 | 306 | 11.0 | 15.0 | 0.00 | 0.00 | 0.00 | 58 | 1019.7 |
| 20260509122003 | 45 | 300 | 12.0 | 15.0 | 0.00 | 0.00 | 0.00 | 58 | 1019.7 |